CBERS 4

Last updated on Fri Jul 11 2025 00:02:28 GMT+0000 (Coordinated Universal Time)

1 40336U 14079A 25191.56971127 .00000054 00000+0 33440-4 0 9999 2 40336 98.3522 254.6843 0000547 114.7961 245.3282 14.35517386554940
UTC large
Height (km)
Speed (km/s)
/
Latitude / Longitude
Inclination (degrees)
Orbital Period (minutes)
Azimuth
Elevation
Range (km)
Doppler Factor

Next 0 passes for location: London (51.5072 / 0.1276)

Sorry there are no passes over London.